Weather History for KUIN - November, 2012

Change the Weather History Date:

Friday, November 9, 2012

  Actual Average Record
Temperature  
Mean Temperature 56 °F 46 °F  
Max Temperature 68 °F 55 °F 76 °F (1984)
Min Temperature 43 °F 37 °F 11 °F (1991)
Degree Days  
Heating Degree Days 9 19  
Month to date heating degree days 189 157  
Since 1 July heating degree days 665 581  
Cooling Degree Days 0 0  
Month to date cooling degree days 0 0  
Year to date cooling degree days 1573 1093  
Growing Degree Days 4 (Base 50)    
Moisture  
Dew Point 45 °F    
Average Humidity 69    
Maximum Humidity 82    
Minimum Humidity 55    
Precipitation  
Precipitation 0.00 in 0.10 in 1.15 in (1916)
Month to date precipitation 0.37 0.91  
Year to date precipitation 23.59 32.97  
Sea Level Pressure  
Sea Level Pressure 29.94 in    
Wind  
Wind Speed 9 mph (South)    
Max Wind Speed 18 mph    
Max Gust Speed 25 mph    
Visibility 10 miles    
Events      
T = Trace of Precipitation, MM = Missing Value Source: NWS Daily Summary

Daily Weather History Graph

Daily Weather History Graph

Search for Another Location

Airport or City:

Trip Planner

Search our weather history database for the weather conditions in past years. The results will help you decide how hot, cold, wet, or windy it might be!

Date:

Astronomy

Nov. 09, 2012 Rise Set
Actual Time 6:43 AM CST 4:53 PM CST
Civil Twilight 6:14 AM CST 5:21 PM CST
Nautical Twilight 5:42 AM CST 5:54 PM CST
Astronomical Twilight 5:10 AM CST 6:26 PM CST
Moon 1:42 AM CST (11/9) 2:06 PM CST (11/9)
Length of Visible Light 11h 07m
Length of Day
10h 09m
Waning Crescent, 23% of the Moon is Illuminated
Nov 9
Waning Crescent
Nov 13
New
Nov 20
First Quarter
Nov 28
Full
Dec 6
Last Quarter

Hourly Weather History & Observations

Time (CST) Temp. Windchill Dew Point Humidity Pressure Visibility Wind Dir Wind Speed Gust Speed Precip Events Conditions
12:54 AM 48.0 °F - 37.0 °F 66% 30.01 in 10.0 mi South 8.1 mph - N/A   Clear
1:54 AM 48.0 °F - 37.0 °F 66% 30.01 in 10.0 mi South 6.9 mph - N/A   Overcast
2:54 AM 46.9 °F - 37.0 °F 68% 30.00 in 10.0 mi South 8.1 mph - N/A   Clear
3:54 AM 46.9 °F - 37.9 °F 71% 29.99 in 10.0 mi South 8.1 mph - N/A   Clear
4:54 AM 46.9 °F - 37.9 °F 71% 30.01 in 10.0 mi South 5.8 mph - N/A   Overcast
5:54 AM 46.4 °F 42.9 °F 37.4 °F 71% 30.00 in 10.0 mi SSE 6.9 mph - N/A   Overcast
6:54 AM 43.0 °F 40.3 °F 37.9 °F 82% 30.00 in 10.0 mi SSE 4.6 mph - N/A   Clear
7:54 AM 48.0 °F - 39.9 °F 74% 30.00 in 10.0 mi SSE 5.8 mph - N/A   Clear
8:54 AM 53.1 °F - 41.0 °F 64% 29.99 in 10.0 mi South 8.1 mph - N/A   Clear
9:54 AM 57.0 °F - 43.0 °F 59% 29.98 in 10.0 mi South 13.8 mph - N/A   Clear
10:54 AM 60.1 °F - 45.0 °F 57% 29.96 in 10.0 mi South 11.5 mph - N/A   Clear
11:54 AM 64.0 °F - 48.0 °F 56% 29.93 in 10.0 mi South 12.7 mph - N/A   Clear
12:54 PM 64.9 °F - 50.0 °F 58% 29.90 in 10.0 mi SSW 10.4 mph 18.4 mph N/A   Clear
1:54 PM 66.9 °F - 50.0 °F 54% 29.89 in 10.0 mi South 11.5 mph - N/A   Clear
2:54 PM 66.0 °F - 50.0 °F 56% 29.88 in 10.0 mi South 9.2 mph - N/A   Clear
3:54 PM 64.9 °F - 51.1 °F 61% 29.88 in 10.0 mi SSE 4.6 mph - N/A   Clear
4:54 PM 61.0 °F - 51.1 °F 70% 29.87 in 10.0 mi SSE 4.6 mph - N/A   Clear
5:54 PM 57.0 °F - 48.9 °F 74% 29.87 in 10.0 mi SE 6.9 mph - N/A   Clear
6:54 PM 57.9 °F - 48.9 °F 72% 29.87 in 10.0 mi SSE 8.1 mph - N/A   Clear
7:54 PM 60.1 °F - 50.0 °F 69% 29.86 in 10.0 mi SSE 9.2 mph - N/A   Clear
8:54 PM 64.0 °F - 52.0 °F 65% 29.87 in 10.0 mi South 18.4 mph 25.3 mph N/A   Clear
9:54 PM 62.1 °F - 53.1 °F 72% 29.89 in 10.0 mi SSW 16.1 mph - N/A   Clear
10:54 PM 63.0 °F - 53.1 °F 70% 29.90 in 10.0 mi SSW 15.0 mph 23.0 mph N/A   Mostly Cloudy
11:54 PM 62.1 °F - 53.1 °F 72% 29.90 in 10.0 mi South 12.7 mph - N/A   Partly Cloudy